Regional Weather Roundup
Issued by NWS

Home | Current Version | Previous Version | Graphics & Text | Print | Product List | Glossary On
Versions: 1 2 3 4 5 6 7 8 9 10 11 12 13 14 15 16 17 18 19 20 21 22 23 24 25 26 27 28 29 30 31 32 33 34 35 36 37 38 39 40 41 42 43 44 45 46 47 48 49 50
000
ASUS43 KFSD 201210
RWRSD

WEATHER ROUNDUP FOR SOUTH DAKOTA
NATIONAL WEATHER SERVICE SIOUX FALLS SD
700 AM CDT MON OCT 20 2014

NOTE: "FAIR" INDICATES FEW OR NO CLOUDS BELOW 12,000 FEET WITH NO
SIGNIFICANT WEATHER AND/OR OBSTRUCTIONS TO VISIBILITY.


SDZ001>005-009-010-012>017-201300-
NORTHWEST AND NORTH CENTRAL SOUTH DAKOTA

CITY           SKY/WX    TMP DP  RH WIND       PRES   REMARKS
BUFFALO          N/A     44  35  70 SE6       29.96F
FAITH            N/A     41  35  79 S10       30.06S
MOBRIDGE       PTCLDY    36  36 100 CALM      30.05R
$$

SDZ012>016-024>037-041>051-057-063-072>074-201300-
SOUTHWEST AND SOUTH CENTRAL SOUTH DAKOTA

CITY           SKY/WX    TMP DP  RH WIND       PRES   REMARKS
RAPID CTY ARPT CLEAR     42  35  76 SE5       30.05F
PIERRE         PTCLDY    36  32  85 SW3       30.07S
CUSTER         CLEAR     40  33  76 NW5       30.13F
ELLSWORTH AFB  CLEAR     47  37  67 S6        30.04F
PHILIP         CLEAR     34  31  88 CALM      30.08S
PINE RIDGE     CLEAR     32  30  92 CALM      30.08S
SPEARFISH      FAIR      48  36  61 CALM      30.04F
WINNER         FAIR      46  36  68 SW5       30.09R
$$

SDZ004>011-016>023-039-040-201300-
NORTHEAST SOUTH DAKOTA

CITY           SKY/WX    TMP DP  RH WIND       PRES   REMARKS
ABERDEEN       CLEAR     29  27  92 SE5       30.07R WCI  24
WATERTOWN      CLEAR     35  33  92 CALM      30.05R
SISSETON         N/A     38  35  89 NW5       30.03R
$$

SDZ017-020-022-023-036>040-048>070-201300-
SOUTHEAST SOUTH DAKOTA

CITY           SKY/WX    TMP DP  RH WIND       PRES   REMARKS
SIOUX FALLS    CLEAR     37  35  92 CALM      30.06R
HURON          CLEAR     34  31  88 CALM      30.07S
CHAMBERLAIN    PTCLDY    34  32  91 W3        30.09R
MITCHELL       CLEAR     38  35  89 W5        30.09R
YANKTON        CLEAR     39  36  87 NW10      30.08R
$$

ABBREVIATIONS USED IN REMARKS
   TC - TEMPERATURE IN CELSIUS
  WCI - WIND CHILL INDEX
   HX - HEAT INDEX
  VSB - VISIBILITY




USA.gov is the U.S. government's official web portal to all federal, state and local government web resources and services.